Lapse_Rate
6.2 6.4 6.6 6.5 6.2 6.8 7.0 6.7 6.7 6.4 6.2 6.1 5.9 5.9 6.1 6.0 6.1 5.9 6.0 5.9 5.8 5.8 6.1 6.1 6.0 5.9 5.8 5.7 5.7 5.6 5.6 5.5 5.5 5.5 5.7 5.7 5.5 5.5 5.5 5.7 5.6 5.6 5.6 5.6 5.7 5.8 5.9 6.0 6.1
6.4 6.3 6.5 6.2 6.7 7.4 6.7 6.7 6.1 6.3 5.9 5.7 5.8 6.1 6.1 6.0 6.5 6.4 5.9 5.7 4.7 6.0 6.3 6.2 6.2 6.0 6.0 5.8 5.8 5.6 5.6 5.6 5.6 5.6 5.6 5.7 5.6 5.6 5.6 5.7 5.8 5.8 5.7 5.7 5.9 6.0 6.1 6.1 6.1
6.2 6.4 6.0 6.6 6.8 7.4 6.4 6.4 6.2 5.9 5.8 6.0 6.0 5.8 5.9 5.9 5.5 5.5 5.8 5.6 4.8 5.9 6.4 6.3 6.2 6.1 5.9 5.9 5.8 5.7 5.7 5.6 5.7 5.8 5.7 5.7 5.8 5.7 5.8 5.8 5.8 5.9 5.8 5.9 5.9 5.9 5.9 5.9 6.0
6.3 6.4 6.4 6.2 7.2 7.1 6.9 6.4 6.2 5.9 5.9 6.0 6.2 5.9 5.7 5.4 5.2 6.1 6.0 5.3 5.2 6.4 6.7 6.2 6.1 6.1 5.9 5.9 5.9 5.7 5.6 5.7 5.7 5.7 5.8 5.8 5.9 6.0 5.9 6.0 6.0 6.0 5.9 5.9 5.9 5.9 5.9 6.0 6.0
6.2 6.0 6.8 6.9 7.0 6.9 6.8 6.5 6.3 6.1 6.1 6.1 5.9 5.8 6.4 5.9 5.7 6.3 6.3 5.5 5.2 6.5 6.6 6.3 6.2 6.2 6.3 6.3 6.0 5.9 5.8 5.8 5.9 5.9 5.9 6.0 5.9 6.0 6.0 6.1 6.0 6.0 6.0 6.0 6.0 5.9 5.9 5.9 6.1
6.0 6.2 7.1 7.5 7.1 6.9 6.7 6.6 6.7 6.6 6.4 6.0 6.0 5.7 5.5 5.8 6.4 6.4 6.0 5.2 5.4 5.6 6.2 6.4 6.2 6.3 6.2 6.2 6.0 5.9 5.9 6.0 6.0 6.0 6.1 6.0 6.0 6.0 6.1 6.1 6.1 6.0 6.0 6.0 6.2 6.2 6.0 6.2 6.3
5.6 5.5 7.1 7.5 7.1 6.8 6.7 6.6 6.9 6.6 6.4 6.2 5.8 5.7 6.0 5.9 6.5 6.6 6.4 5.3 5.3 5.2 6.2 6.5 6.3 6.3 6.2 6.1 6.1 6.0 6.1 6.1 6.0 6.1 6.1 6.1 6.2 6.2 6.2 6.2 6.2 6.2 6.2 6.2 6.3 6.2 6.0 6.2 6.3
6.5 6.9 6.6 7.4 7.1 6.9 6.5 6.5 6.4 6.7 6.3 6.1 6.4 6.1 6.0 6.2 6.6 6.7 6.6 6.2 5.5 6.1 5.4 6.5 6.5 6.5 6.2 6.1 6.0 6.1 6.1 6.1 6.0 6.1 6.1 6.1 6.1 6.3 6.3 6.3 6.3 6.4 6.4 6.3 6.3 6.2 6.1 6.1 6.1
6.3 6.3 6.8 7.2 6.9 7.0 6.6 6.7 6.3 6.3 6.1 6.0 6.2 6.2 5.7 6.4 6.4 6.4 6.4 6.5 6.7 6.7 6.7 6.7 6.7 6.4 6.3 6.1 6.0 6.0 6.0 6.0 6.0 5.9 5.9 6.1 6.0 6.1 6.1 6.4 6.3 6.4 6.6 6.5 6.5 6.5 6.4 6.3 6.3
6.0 6.7 6.8 7.0 6.7 7.1 6.8 6.5 6.4 6.4 6.3 6.0 6.0 5.8 6.5 6.4 6.3 5.9 5.9 5.5 6.2 6.3 6.4 6.5 5.8 6.2 6.2 6.1 6.1 6.0 5.9 5.8 5.8 5.7 5.9 5.5 5.3 6.1 6.2 6.3 6.5 6.5 6.5 6.5 6.6 6.6 6.5 6.4 6.1
6.5 7.2 6.8 7.0 6.8 6.9 6.8 6.7 6.6 6.8 6.7 6.2 5.8 6.4 6.4 6.2 5.9 5.2 5.0 4.9 5.0 5.8 6.1 6.1 6.4 6.2 5.8 6.0 5.9 6.0 5.9 5.7 5.7 5.9 6.2 5.6 5.7 6.0 5.8 6.0 6.2 6.4 6.4 6.7 6.5 6.5 6.5 6.2 6.3
7.8 7.0 6.7 6.7 6.6 6.8 6.6 6.5 6.7 6.8 6.8 6.4 5.9 5.6 6.2 6.1 5.2 5.2 5.1 4.9 4.8 5.5 5.8 5.5 6.3 6.1 6.1 6.1 5.3 4.7 4.8 6.0 5.8 6.0 6.1 5.9 5.6 5.8 5.5 5.5 5.7 6.0 6.1 6.4 6.3 5.8 6.5 6.4 6.4
7.1 7.1 6.9 6.8 6.8 6.6 6.3 6.5 6.5 6.2 6.1 6.1 5.9 6.2 5.5 5.3 5.2 5.2 5.0 4.9 4.8 5.7 5.6 5.6 6.1 6.4 6.3 5.8 5.6 5.1 5.2 5.0 5.7 5.9 6.1 6.4 5.4 5.9 5.5 5.8 5.6 5.7 5.8 5.9 6.0 6.5 6.7 6.6 6.5
7.2 7.0 6.8 6.8 6.7 6.6 6.6 6.4 6.6 6.3 6.3 6.3 6.1 5.6 5.4 5.4 5.3 5.1 4.9 4.8 5.4 5.6 5.7 5.8 5.9 6.0 6.1 6.2 6.0 5.8 4.7 5.3 4.8 5.4 6.0 6.1 6.2 6.2 5.8 5.4 5.5 5.4 5.4 5.5 6.0 6.5 6.6 6.5 6.3
7.2 7.0 6.9 6.9 6.9 6.9 7.0 6.6 7.0 6.3 6.0 5.7 5.6 5.4 5.4 5.4 5.4 5.2 4.9 5.0 5.1 5.6 5.5 5.8 5.7 5.7 5.7 5.8 5.7 5.5 5.0 4.6 4.5 4.7 5.6 5.7 5.8 5.8 6.0 5.2 5.4 5.2 5.2 5.9 6.1 6.3 6.2 6.1 5.6
7.8 8.0 7.7 7.1 6.9 6.8 6.5 6.1 6.6 6.2 6.0 5.8 5.6 5.6 5.5 5.4 5.4 5.2 4.8 5.1 5.3 5.0 5.5 5.7 5.2 5.6 5.5 5.4 5.3 4.8 4.6 4.9 4.6 4.6 5.4 5.6 5.7 5.7 5.7 4.9 5.2 5.2 5.8 5.3 5.2 5.1 5.3 5.4 5.4
7.8 6.9 7.4 7.4 7.1 7.0 6.9 6.8 6.9 6.2 6.3 6.2 5.9 5.7 5.6 5.6 5.4 5.3 5.0 4.8 5.0 5.4 5.4 5.6 5.6 5.3 5.4 5.4 5.2 5.2 4.6 4.7 4.6 4.6 4.6 5.2 5.6 5.7 5.7 5.5 5.0 5.1 5.3 4.9 5.0 5.0 4.9 5.0 5.0
8.2 7.4 8.9 8.5 7.6 7.2 7.5 7.6 7.0 6.6 6.5 6.4 6.2 5.8 5.6 5.7 5.6 5.4 5.2 5.0 4.6 5.2 5.5 5.4 5.5 5.6 5.6 5.3 5.2 4.8 4.2 4.3 4.5 4.7 4.8 4.7 5.2 5.4 5.4 5.3 4.8 5.7 5.6 4.8 4.9 5.3 5.6 5.7 5.2
7.4 8.4 8.5 8.8 7.5 7.3 7.6 7.8 7.4 7.0 6.7 6.5 6.3 5.9 5.7 5.7 5.7 5.5 5.4 5.2 4.8 4.9 5.4 5.5 5.4 5.5 5.4 5.5 5.5 4.3 4.3 4.3 4.4 4.7 4.6 4.6 5.2 4.9 5.4 5.3 4.6 4.6 4.8 4.9 5.6 5.5 5.6 5.4 4.9
8.1 9.1 7.9 8.0 7.5 7.4 7.6 7.7 7.7 7.5 7.2 7.1 6.8 6.4 6.0 5.9 5.8 5.4 5.3 5.4 5.1 4.9 5.4 5.4 5.5 5.6 5.4 5.3 5.5 5.2 4.9 5.1 4.9 4.8 4.9 4.9 4.8 4.8 5.0 5.1 5.2 4.9 5.5 5.5 5.7 5.7 5.5 5.3 5.3
9.1 8.2 7.7 8.0 7.7 7.3 7.4 7.6 7.7 7.8 7.6 7.2 7.2 6.9 6.4 6.2 6.2 5.9 5.6 5.2 5.4 5.3 5.1 5.4 5.3 5.2 5.2 5.2 5.4 5.7 5.8 5.7 5.3 5.2 5.1 5.4 5.7 5.7 5.5 5.6 5.4 5.4 5.3 5.5 5.4 5.6 5.7 5.6 5.4
7.4 7.7 8.3 8.1 8.0 8.3 7.6 7.5 7.7 7.7 7.2 7.0 6.9 6.9 6.7 6.3 6.0 6.0 5.7 5.5 5.3 5.3 5.3 5.2 5.4 5.4 5.5 5.3 5.3 5.5 5.1 5.0 4.9 4.7 4.8 5.1 5.9 5.7 5.7 5.5 5.4 5.4 5.3 5.7 5.2 5.3 5.5 5.4 5.3
7.7 8.2 8.5 8.6 8.5 9.2 8.8 8.7 7.2 7.6 7.6 7.6 7.5 7.1 6.8 6.8 6.5 6.2 5.9 5.8 5.5 5.5 5.4 5.3 5.6 5.5 5.3 5.4 5.4 5.2 5.3 5.0 4.8 4.6 5.7 5.4 5.8 5.7 5.6 5.4 5.6 5.6 5.6 5.9 5.7 5.6 5.5 5.4 5.3
8.0 8.4 8.6 8.6 9.2 9.6 8.0 8.1 8.2 6.3 8.3 7.5 7.7 7.5 7.1 6.9 6.7 6.4 6.4 6.2 5.9 5.8 5.6 5.4 5.5 5.9 5.9 5.8 5.6 5.5 5.7 6.1 5.6 5.3 5.3 5.5 5.9 5.4 5.4 5.3 5.4 5.4 5.3 5.4 5.6 5.7 5.7 5.7 5.2
8.3 9.3 9.4 8.9 7.5 8.5 7.2 8.4 8.8 8.2 8.1 7.8 7.8 7.6 7.2 7.1 7.1 6.8 6.6 6.5 6.2 6.0 5.9 5.7 5.5 5.9 6.1 6.3 6.2 6.4 6.0 5.8 5.5 5.4 5.5 5.8 5.7 5.5 5.5 5.2 5.3 5.3 5.2 5.2 5.1 5.5 5.5 5.5 5.3
8.6 8.7 9.3 8.2 9.8 9.5 7.4 6.3 9.1 8.6 8.2 8.5 8.5 8.4 8.1 8.1 7.2 7.2 6.9 6.7 6.5 6.1 5.5 5.9 6.0 6.3 6.1 6.0 5.9 5.8 5.9 6.0 5.9 5.8 5.7 5.2 4.6 5.0 5.0 5.1 5.2 5.4 5.4 5.0 5.1 5.2 5.3 4.8 4.7
9.4 9.4 9.4 9.3 9.5 9.6 9.6 9.4 9.6 8.9 8.0 8.0 8.4 8.3 8.1 7.7 7.2 7.4 7.3 7.0 6.5 6.2 6.2 6.2 6.1 6.0 6.2 6.5 6.5 6.2 6.1 6.0 5.9 6.1 6.0 5.6 5.3 5.0 5.1 5.0 4.9 5.1 5.0 5.2 5.0 4.8 5.0 4.6 4.6
8.6 9.2 9.6 9.4 9.6 9.4 9.5 9.5 8.7 9.1 9.3 7.7 8.5 8.6 8.3 8.2 7.8 7.9 7.8 7.2 7.0 6.8 6.5 6.4 6.1 6.2 6.2 6.2 5.8 6.1 5.0 5.5 5.7 6.0 5.5 5.7 5.6 5.5 5.3 5.5 4.9 4.9 4.9 5.2 5.0 5.0 5.2 5.1 5.1
9.6 9.3 9.4 9.5 9.6 9.9 9.9 9.8 9.5 9.3 8.8 8.0 8.7 8.8 8.9 9.1 8.9 8.2 7.7 7.5 7.1 6.9 7.0 6.8 6.6 6.3 6.3 6.3 6.7 6.8 6.8 5.7 6.6 5.3 5.4 5.5 5.0 5.0 5.1 4.8 5.1 5.3 5.5 5.4 5.3 5.5 5.1 5.1 5.2
9.7 9.6 9.6 9.7 9.7 9.6 9.7 9.6 8.8 8.3 8.9 8.9 8.9 9.0 9.1 9.1 8.9 8.7 8.3 7.9 7.5 7.3 7.2 7.3 7.1 6.7 6.6 7.5 7.3 7.3 6.7 6.3 6.5 6.0 5.5 5.4 5.5 5.3 4.5 4.3 4.8 4.8 5.1 6.2 6.4 6.1 5.7 5.5 5.1
Wind_Speed
10 14 6 5 4 4 12 13 15 15 11 14 7 8 15 15 10 11 15 11 13 17 15 13 8 8 9 8 9 9 10 10 11 11 11 11 13 13 13 14 15 14 14 14 14 15 14 15 14
9 5 7 5 2 11 8 13 12 13 14 11 10 9 12 15 15 18 14 12 12 16 18 16 9 9 9 9 9 8 9 11 11 11 11 12 12 12 14 14 15 14 14 14 13 13 13 12 11
11 7 5 3 2 13 9 12 14 13 11 9 6 11 8 15 15 14 16 13 12 14 19 15 11 9 10 9 9 10 10 10 11 11 12 11 12 13 12 13 13 12 12 12 11 10 9 9 8
5 5 5 2 14 11 15 11 12 11 6 2 11 13 16 14 9 18 16 15 12 19 18 14 11 11 10 9 9 10 11 11 10 10 11 10 11 11 10 10 10 10 10 9 8 7 6 5 5
8 7 2 6 21 13 13 13 10 8 9 7 7 16 13 7 18 16 14 13 13 12 17 16 12 11 10 9 10 10 11 10 9 10 10 9 9 9 9 9 9 8 8 7 6 5 4 2 2
7 4 2 9 15 15 13 10 7 10 8 10 11 16 12 13 15 14 13 12 12 17 21 16 11 10 9 10 9 9 9 9 8 9 8 8 7 7 7 8 8 7 6 6 6 5 3 2 1
12 3 3 12 12 13 11 4 8 10 8 8 16 12 12 16 14 14 11 8 11 11 17 14 14 12 9 10 9 8 8 8 7 7 6 5 5 6 6 6 6 7 6 5 4 3 3 4 4
8 6 14 10 5 14 9 10 4 8 11 12 12 9 17 18 15 14 11 9 8 9 10 11 13 15 18 14 10 9 7 7 6 6 5 6 6 5 6 6 5 4 4 4 4 4 5 7 7
4 3 5 12 5 11 8 10 6 6 11 9 3 15 19 18 16 14 12 10 8 7 9 11 15 9 9 13 12 11 8 7 7 7 8 11 12 11 12 11 9 4 4 4 5 5 9 13 13
2 5 7 11 13 13 6 10 11 11 12 11 9 19 20 18 15 14 12 11 11 11 10 8 11 12 13 15 14 13 14 13 10 8 7 13 7 6 10 10 9 8 9 11 11 12 15 18 12
12 1 8 11 10 9 10 10 7 11 10 12 15 19 19 17 15 13 11 10 10 10 9 9 11 12 12 12 13 12 10 10 9 6 2 6 2 8 13 13 12 14 15 14 14 14 15 3 5
3 9 12 10 11 11 9 9 8 4 10 14 15 18 18 16 15 13 10 9 10 10 10 11 11 9 12 10 10 9 9 8 5 12 4 4 10 4 5 5 5 7 5 6 2 5 8 6 4
9 11 13 12 9 14 9 8 7 5 6 9 17 17 17 15 13 12 10 9 10 10 10 12 10 6 8 8 9 7 11 9 11 8 5 4 4 2 6 5 5 6 1 5 1 3 3 1 4
8 13 13 9 10 8 11 10 6 7 12 15 16 16 15 14 13 12 10 10 10 11 11 13 11 8 11 4 7 4 7 9 4 3 7 2 5 2 2 4 1 1 3 7 6 6 4 4 5
10 14 11 10 7 7 9 10 8 11 13 15 15 14 14 13 13 12 11 10 10 11 12 13 12 11 9 8 8 8 9 10 6 4 3 0 5 2 7 1 6 3 4 5 5 4 6 5 5
8 10 5 12 8 5 8 10 14 12 12 13 14 13 12 13 14 12 12 11 11 12 12 13 11 13 10 8 6 8 9 2 6 5 5 4 3 2 4 5 5 9 7 7 4 6 5 8 7
6 9 20 10 9 9 9 7 13 12 11 13 13 14 13 13 13 12 13 12 14 12 12 12 9 11 11 8 8 8 4 7 8 9 8 9 5 5 6 8 7 7 10 8 5 7 8 8 8
1 14 4 8 12 5 8 5 10 13 13 11 14 14 14 14 15 15 14 14 15 13 13 11 10 7 8 7 6 6 7 9 13 9 9 9 7 5 6 10 5 5 9 8 8 7 8 8 10
27 8 5 5 8 8 5 13 11 12 12 13 13 15 15 15 17 16 15 14 14 15 13 14 12 10 7 8 7 8 7 8 9 10 9 2 6 9 6 9 9 8 6 7 7 8 9 10 8
9 4 3 6 2 6 4 12 9 15 14 13 14 16 16 17 17 17 17 14 14 16 15 14 14 13 11 8 7 6 6 7 9 6 7 2 8 8 9 7 7 10 8 8 8 6 6 8 8
7 7 2 6 8 11 9 13 9 12 11 12 13 13 16 17 18 18 17 17 16 15 16 16 15 14 13 12 8 7 7 7 6 6 6 6 5 4 5 3 4 4 5 5 6 7 5 4 8
10 22 7 14 10 3 16 3 8 9 13 14 14 14 14 17 17 17 18 18 17 17 16 17 16 14 13 13 11 11 8 10 9 8 8 7 3 2 2 2 3 3 4 4 5 3 2 3 5
9 4 4 5 13 11 15 7 5 12 11 13 13 16 15 15 17 18 20 20 16 16 16 17 15 14 14 13 13 9 11 9 5 3 6 6 5 5 3 4 5 5 5 7 7 8 9 7 6
6 9 11 12 15 12 14 16 6 8 8 8 9 11 14 15 16 16 16 16 16 16 16 15 15 14 14 13 13 10 10 7 8 7 2 6 5 5 8 9 9 11 9 8 8 8 9 8 7
9 16 11 4 7 7 7 15 8 12 9 7 5 2 6 12 15 15 14 15 15 15 14 12 9 9 10 14 12 11 9 10 10 12 9 8 7 5 6 7 8 8 11 10 10 6 5 8 8
3 18 8 11 12 7 14 3 5 11 12 12 8 2 4 10 12 16 16 14 13 12 19 18 20 18 15 15 14 12 11 6 6 8 10 12 7 8 7 8 9 10 11 10 12 7 8 6 5
13 16 16 16 19 17 15 6 12 17 15 12 12 7 7 7 13 13 5 4 11 18 16 17 21 17 16 16 13 11 9 6 5 7 9 9 8 5 6 9 8 10 10 12 10 5 6 7 6
12 17 13 11 15 15 17 12 8 6 13 15 11 9 7 7 11 13 13 17 18 17 13 16 16 17 15 12 8 10 9 5 4 5 6 8 7 8 6 7 6 5 0 5 3 3 3 4 4
10 12 12 16 12 11 12 2 9 5 10 16 12 12 9 10 8 8 11 14 15 15 13 14 12 8 2 1 4 10 8 7 6 6 7 8 6 5 6 4 3 2 0 3 5 2 4 5 4
9 15 16 12 13 14 12 12 10 12 11 14 13 11 9 9 9 9 9 12 13 12 10 8 7 2 2 3 5 8 8 8 7 7 7 6 5 4 4 5 4 5 5 5 5 4 2 5 4
Wind_Direction
224 229 269 255 283 198 105 92 94 114 92 73 69 47 62 26 11 91 136 127 141 126 120 124 122 122 110 108 104 114 113 106 107 108 102 104 102 100 101 97 97 97 102 101 104 107 106 103 102
269 279 237 275 258 102 94 110 86 84 99 104 111 99 64 66 93 119 121 134 128 114 135 120 124 120 114 108 103 101 102 102 107 104 104 98 102 104 102 97 94 97 96 103 107 110 108 108 106
263 278 277 331 274 114 116 107 92 104 124 113 91 50 50 110 113 120 123 136 131 107 113 109 119 124 116 113 108 100 101 106 109 108 108 103 101 103 100 99 103 105 105 107 113 119 119 112 111
265 209 233 203 113 89 104 110 125 124 123 56 102 84 95 98 101 117 139 134 135 90 102 117 122 114 108 103 105 112 107 108 112 113 107 112 106 104 105 107 111 111 114 119 126 123 114 122 122
240 254 202 124 100 108 96 111 133 146 138 122 86 119 110 105 104 131 132 136 131 118 120 121 120 121 117 118 112 110 114 113 118 119 122 111 110 112 112 113 115 122 133 137 139 138 138 142 118
247 297 301 113 109 105 99 116 118 95 114 88 109 123 110 119 133 136 142 158 143 148 126 127 127 127 127 123 128 117 117 117 115 114 114 111 115 113 117 120 129 138 151 161 167 165 166 198 237
267 58 184 109 112 108 99 121 108 112 124 125 134 126 127 149 138 135 143 146 117 138 113 144 134 137 136 124 131 121 119 117 116 116 112 120 126 128 134 141 149 151 167 181 191 200 230 254 259
264 227 116 90 123 109 108 77 67 111 81 122 155 140 156 141 147 141 147 139 131 141 117 115 149 162 135 141 131 126 124 130 132 129 145 169 162 159 171 171 158 162 185 205 228 249 262 260 258
236 206 94 128 12 120 140 112 84 94 128 146 99 134 140 143 152 151 152 146 140 136 131 150 130 172 112 129 132 143 145 155 159 166 200 206 178 166 161 111 138 177 206 226 235 250 259 256 248
17 33 119 104 194 118 130 102 119 138 144 144 149 118 136 154 163 156 163 154 154 157 159 158 130 134 166 121 157 138 151 162 157 145 222 236 64 61 80 139 168 197 213 222 220 227 241 259 215
7 27 110 74 87 125 119 112 147 131 156 157 145 146 152 160 171 162 172 154 153 153 142 166 128 167 145 139 148 156 149 148 135 122 295 37 296 163 201 156 179 198 212 216 212 213 227 85 357
167 92 95 116 109 112 102 126 150 356 56 148 147 153 161 169 175 167 157 149 147 147 154 144 141 156 125 140 170 135 128 135 194 98 190 159 217 179 315 30 79 230 124 42 172 330 31 311 323
194 108 107 94 124 95 130 111 93 90 98 131 142 159 169 178 173 163 150 152 139 150 150 127 136 123 126 200 98 191 116 184 118 157 105 5 26 12 240 88 336 356 280 121 209 54 26 28 231
124 95 102 125 112 133 125 132 154 122 132 134 153 168 175 182 176 158 160 157 150 153 157 131 150 143 149 120 149 198 169 95 223 151 99 112 330 8 40 190 205 79 331 21 12 15 333 326 292
127 133 139 141 158 141 165 165 118 150 150 153 168 177 179 183 179 168 170 159 170 161 162 145 156 166 149 136 179 219 146 194 150 173 175 26 316 64 322 307 280 347 42 253 212 259 223 244 273
206 157 153 142 178 139 140 282 130 158 165 166 177 181 186 184 183 179 170 170 165 172 163 158 177 161 168 171 185 211 208 245 205 201 200 186 221 280 286 256 278 42 296 290 271 277 290 315 331
164 310 152 144 214 135 252 204 132 165 193 168 185 184 189 186 194 181 177 181 163 172 168 169 188 170 162 156 207 227 248 251 244 226 215 159 246 263 261 286 305 13 306 293 292 306 331 323 311
299 198 186 107 168 212 204 200 159 173 194 189 184 190 190 194 193 177 192 188 166 171 173 188 181 198 169 179 210 264 229 220 243 240 246 146 231 209 273 279 293 310 288 301 8 359 322 300 277
217 129 224 256 95 299 299 214 147 182 210 195 186 187 196 200 182 175 196 182 177 173 181 184 196 180 190 195 220 213 227 222 235 237 241 339 254 267 222 271 273 235 252 348 344 314 310 305 315
263 228 336 208 53 270 239 261 214 194 195 213 190 187 200 196 191 185 184 191 196 182 180 191 199 197 199 209 231 249 243 228 216 232 95 146 304 294 291 294 314 341 344 320 311 301 318 315 322
222 160 202 296 213 233 249 236 227 215 186 204 206 197 193 201 199 186 184 193 198 197 185 192 199 198 203 227 210 216 255 277 275 240 236 200 208 260 259 290 278 301 311 323 304 310 312 312 323
106 279 177 214 242 133 261 170 181 188 184 197 205 197 206 197 203 192 191 195 206 202 199 198 198 204 204 213 235 213 227 224 224 239 236 134 119 242 234 333 3 8 336 356 349 360 310 219 250
163 321 301 257 256 255 183 246 319 167 165 180 205 198 206 202 205 208 197 195 206 211 202 199 188 204 220 205 237 229 225 258 299 285 159 105 91 85 89 72 58 49 39 41 28 5 360 319 322
335 254 229 244 253 266 52 311 124 320 117 108 164 194 205 210 202 208 210 199 199 212 214 206 180 185 202 218 229 259 312 326 328 327 282 117 137 133 78 76 59 46 34 42 33 3 34 5 356
246 270 272 278 329 334 51 226 143 196 104 95 95 81 210 218 214 204 214 202 202 205 207 211 156 104 71 71 67 66 46 38 22 5 336 185 145 126 93 81 73 72 49 25 27 4 19 26 5
276 301 288 262 269 249 160 313 81 101 116 112 112 79 324 271 235 210 200 206 198 205 91 95 98 102 95 89 75 60 48 51 68 74 68 50 33 66 81 86 81 76 62 41 23 14 19 23 353
277 247 266 295 282 286 274 236 156 149 143 124 94 76 43 39 19 214 169 243 130 97 101 111 112 116 109 103 92 73 60 52 61 83 109 104 114 106 88 46 51 43 44 49 47 45 29 357 334
264 289 287 235 280 298 312 289 347 29 155 113 102 75 63 73 46 45 50 69 81 96 104 114 116 112 115 127 125 113 126 160 101 95 88 78 90 102 117 131 104 59 273 94 111 112 198 223 313
217 226 229 269 282 295 297 311 77 134 44 103 102 77 54 52 51 58 69 82 95 110 113 108 111 110 87 39 135 147 135 147 103 91 85 88 103 119 100 119 178 138 259 229 213 185 211 223 229
279 294 298 289 269 244 257 272 76 95 85 99 98 105 86 74 66 72 84 96 98 97 101 107 134 242 291 45 111 138 136 113 125 117 101 103 135 153 178 217 231 229 212 225 207 201 248 282 337